GW5111 Weather Reports


Display with metric or nautical units.
time (UTC)temp
F
wind
direction
speed
MPH
gust
MPH
rain 1hr
in
rain 24hr
in
rain mn
in
humidity
%
barometer
mb
20260504070402 46 280 6.0 7.0 0.00 0.00 0.00 62 1016.1
20260504050749 46 283 3.0 4.0 0.00 0.00 0.00 54 1016.9
20260504050247 46 294 4.0 4.0 0.00 0.00 0.00 52 1016.9
20260504045744 46 266 3.0 6.0 0.00 0.00 0.00 52 1016.8
20260504045238 46 299 3.0 7.0 0.00 0.00 0.00 51 1016.7
20260504044736 45 278 1.0 4.0 0.00 0.00 0.00 51 1016.7
20260504044234 44 316 2.0 4.0 0.00 0.00 0.00 51 1016.8
20260504043731 44 297 2.0 3.0 0.00 0.00 0.00 52 1016.7
20260504043227 44 289 2.0 2.0 0.00 0.00 0.00 53 1016.8
20260504042725 44 296 1.0 1.0 0.00 0.00 0.00 52 1016.6
20260504042221 44 303 2.0 2.0 0.00 0.00 0.00 51 1016.7
20260504041718 44 297 2.0 4.0 0.00 0.00 0.00 52 1016.6
20260504041214 44 308 2.0 4.0 0.00 0.00 0.00 50 1016.6
20260504040710 44 293 2.0 3.0 0.00 0.00 0.00 50 1016.7
20260504040208 45 298 1.0 3.0 0.00 0.00 0.00 50 1016.6
20260504035703 45 300 3.0 3.0 0.00 0.00 0.00 48 1016.6
20260504035201 45 296 2.0 3.0 0.00 0.00 0.00 48 1016.6
20260504034658 45 295 2.0 3.0 0.00 0.00 0.00 48 1016.5
20260504034155 45 288 2.0 3.0 0.00 0.00 0.00 48 1016.6
20260504033653 45 310 2.0 3.0 0.00 0.00 0.00 48 1016.5
20260504033150 45 283 2.0 3.0 0.00 0.00 0.00 48 1016.4
20260504032647 45 288 2.0 2.0 0.00 0.00 0.00 49 1016.5
20260504032144 45 286 2.0 3.0 0.00 0.00 0.00 48 1016.5
20260504031641 45 288 1.0 2.0 0.00 0.00 0.00 48 1016.5
20260504031137 45 301 2.0 2.0 0.00 0.00 0.00 48 1016.4
20260504030634 44 269 0.0 1.0 0.00 0.00 0.00 49 1016.2
20260504030131 45 314 1.0 2.0 0.00 0.00 0.00 52 1016.5
20260504025628 45 303 1.0 2.0 0.00 0.00 0.00 47 1016.5
20260504025124 46 318 2.0 3.0 0.00 0.00 0.00 48 1016.5
20260504024622 46 292 2.0 2.0 0.00 0.00 0.00 46 1016.3
20260504024118 45 273 1.0 3.0 0.00 0.00 0.00 47 1016.5
20260504023615 45 294 1.0 2.0 0.00 0.00 0.00 48 1016.6
20260504023111 45 312 2.0 2.0 0.00 0.00 0.00 47 1016.6
20260504022607 45 307 2.0 3.0 0.00 0.00 0.00 46 1016.5
20260504022103 45 318 2.0 2.0 0.00 0.00 0.00 46 1016.6
20260504021601 45 323 1.0 3.0 0.00 0.00 0.00 48 1016.6
20260504021058 45 327 2.0 3.0 0.00 0.00 0.00 47 1016.7
20260504020555 45 315 3.0 3.0 0.00 0.00 0.00 47 1016.5
20260504020051 45 350 2.0 4.0 0.00 0.00 0.00 47 1016.6
20260504015548 45 349 2.0 4.0 0.00 0.00 0.00 46 1016.5
20260504015043 45 351 2.0 3.0 0.00 0.00 0.00 46 1016.4
20260504014540 45 336 1.0 2.0 0.00 0.00 0.00 45 1016.5
20260504014037 46 333 2.0 3.0 0.00 0.00 0.00 46 1016.3
20260504013535 46 313 1.0 3.0 0.00 0.00 0.00 46 1016.4
20260504013032 45 335 3.0 3.0 0.00 0.00 0.00 45 1016.4
20260504012529 46 321 2.0 2.0 0.00 0.00 0.00 46 1016.4
20260504012027 46 336 2.0 3.0 0.00 0.00 0.00 46 1016.3
20260504011523 46 354 2.0 3.0 0.00 0.00 0.00 46 1016.3
20260504011019 46 343 2.0 3.0 0.00 0.00 0.00 45 1016.1
20260504010515 46 334 2.0 2.0 0.00 0.00 0.00 45 1015.9
20260504010011 46 322 1.0 1.0 0.00 0.00 0.00 45 1015.8
20260504005508 46 324 1.0 2.0 0.00 0.00 0.00 45 1016.1
20260504005006 46 325 2.0 2.0 0.00 0.00 0.00 45 1016.1
20260504004503 46 333 2.0 3.0 0.00 0.00 0.00 45 1015.9
20260504004000 46 318 1.0 2.0 0.00 0.00 0.00 45 1015.8
20260504003456 47 335 2.0 3.0 0.00 0.00 0.00 44 1016.1
20260504002953 47 327 2.0 2.0 0.00 0.00 0.00 46 1015.7
20260504002450 47 331 1.0 2.0 0.00 0.00 0.00 45 1015.6
20260504001948 47 318 2.0 3.0 0.00 0.00 0.00 45 1015.7
20260504001445 47 352 2.0 3.0 0.00 0.00 0.00 45 1015.8
20260504000942 48 345 2.0 3.0 0.00 0.00 0.00 44 1015.9
20260504000439 48 335 2.0 3.0 0.00 0.00 0.00 44 1015.8
20260503235936 49 337 2.0 3.0 0.00 0.00 0.00 42 1015.8
20260503235433 50 323 3.0 3.0 0.00 0.00 0.00 41 1015.8
20260503234931 50 303 1.0 6.0 0.00 0.00 0.00 41 1015.8
20260503234428 50 0 4.0 6.0 0.00 0.00 0.00 40 1015.8
20260503233926 50 322 3.0 7.0 0.00 0.00 0.00 41 1016.1
20260503233422 51 337 2.0 4.0 0.00 0.00 0.00 40 1016.1
20260503232919 51 308 3.0 7.0 0.00 0.00 0.00 39 1015.9
20260503232416 51 326 3.0 4.0 0.00 0.00 0.00 39 1015.8
20260503231914 51 338 4.0 9.0 0.00 0.00 0.00 38 1016.1
20260503231411 51 322 6.0 10.0 0.00 0.00 0.00 38 1015.9
20260503230907 52 315 3.0 6.0 0.00 0.00 0.00 38 1016.1
20260503230404 52 293 3.0 9.0 0.00 0.00 0.00 39 1016.2
20260503225901 51 329 7.0 8.0 0.00 0.00 0.00 38 1016.4
20260503225357 52 286 8.0 15.0 0.00 0.00 0.00 37 1016.1
20260503224854 52 358 5.0 13.0 0.00 0.00 0.00 37 1016.2
20260503224351 52 287 5.0 7.0 0.00 0.00 0.00 36 1016.2
20260503223849 52 320 2.0 9.0 0.00 0.00 0.00 38 1016.4
20260503223346 52 274 6.0 13.0 0.00 0.00 0.00 35 1016.2
20260503222841 52 300 5.0 8.0 0.00 0.00 0.00 36 1016.2
20260503222340 53 297 8.0 10.0 0.00 0.00 0.00 34 1016.1
20260503221838 52 323 4.0 7.0 0.00 0.00 0.00 36 1016.1
20260503221337 52 319 7.0 11.0 0.00 0.00 0.00 36 1016.1
20260503220832 53 309 7.0 13.0 0.00 0.00 0.00 35 1016.2
20260503220329 52 323 4.0 9.0 0.00 0.00 0.00 38 1016.2
20260503215826 53 202 5.0 8.0 0.00 0.00 0.00 41 1016.1
20260503215323 52 301 9.0 11.0 0.00 0.00 0.00 38 1016.3
20260503214821 53 281 5.0 8.0 0.00 0.00 0.00 41 1016.2
20260503214318 52 261 8.0 11.0 0.00 0.00 0.00 42 1016.3
20260503213815 53 333 6.0 7.0 0.00 0.00 0.00 40 1016.1
20260503213313 53 324 4.0 8.0 0.00 0.00 0.00 40 1016.4
20260503212809 53 292 4.0 6.0 0.00 0.00 0.00 39 1016.3
20260503212307 52 274 6.0 9.0 0.00 0.00 0.00 38 1016.3
20260503211805 53 317 6.0 10.0 0.00 0.00 0.00 38 1016.3
20260503211301 53 305 7.0 9.0 0.00 0.00 0.00 41 1016.4
20260503210801 53 332 4.0 9.0 0.00 0.00 0.00 34 1016.4
20260503210259 53 288 8.0 13.0 0.00 0.00 0.00 35 1016.5
20260503205754 53 296 4.0 9.0 0.00 0.00 0.00 37 1016.6
20260503205251 52 320 9.0 14.0 0.00 0.00 0.00 33 1016.5
20260503204747 53 277 2.0 7.0 0.00 0.00 0.00 35 1016.5
20260503204245 52 308 3.0 10.0 0.00 0.00 0.00 36 1016.5
20260503203742 52 298 8.0 16.0 0.00 0.00 0.00 39 1016.8
20260503203239 52 271 2.0 10.0 0.00 0.00 0.00 39 1016.6
20260503202736 52 297 7.0 11.0 0.00 0.00 0.00 41 1016.6
20260503202234 52 331 5.0 8.0 0.00 0.00 0.00 41 1016.7
20260503201732 52 301 6.0 8.0 0.00 0.00 0.00 39 1016.8
20260503201229 52 320 4.0 13.0 0.00 0.00 0.00 38 1016.9
20260503200725 51 63 11.0 14.0 0.00 0.00 0.00 39 1016.8
20260503200222 51 318 7.0 11.0 0.00 0.00 0.00 42 1016.9
20260503195718 51 275 8.0 13.0 0.00 0.00 0.00 40 1017.2
20260503195216 52 280 7.0 10.0 0.00 0.00 0.00 38 1017.2
20260503194713 51 261 4.0 10.0 0.00 0.00 0.00 39 1017.0
20260503194209 52 318 6.0 8.0 0.00 0.00 0.00 47 1017.4
20260503193705 52 306 7.0 11.0 0.00 0.00 0.00 36 1017.4
20260503193201 51 359 6.0 10.0 0.00 0.00 0.00 44 1017.4
20260503192657 51 273 3.0 7.0 0.00 0.00 0.00 40 1017.5
20260503192152 51 276 6.0 11.0 0.00 0.00 0.00 49 1017.7
20260503191649 51 299 11.0 15.0 0.00 0.00 0.00 40 1017.5
20260503191146 51 32 7.0 9.0 0.00 0.00 0.00 43 1017.6
20260503190643 50 61 4.0 9.0 0.00 0.00 0.00 38 1017.9
20260503190140 51 15 4.0 15.0 0.00 0.00 0.00 43 1017.9
20260503185637 51 329 7.0 14.0 0.00 0.00 0.00 43 1017.7
20260503185132 50 49 4.0 6.0 0.00 0.00 0.00 46 1017.8
20260503184627 51 328 4.0 10.0 0.00 0.00 0.00 39 1017.9
20260503184124 51 315 6.0 9.0 0.00 0.00 0.00 46 1018.0
20260503183620 50 29 5.0 10.0 0.00 0.00 0.00 44 1017.9
20260503183118 50 25 5.0 8.0 0.00 0.00 0.00 50 1018.0
20260503182616 50 295 6.0 9.0 0.00 0.00 0.00 40 1017.9
20260503182114 52 309 7.0 8.0 0.00 0.00 0.00 48 1017.9
20260503181610 50 299 4.0 4.0 0.00 0.00 0.00 53 1018.0
20260503181107 49 59 5.0 7.0 0.00 0.00 0.00 50 1017.9
20260503180604 49 31 6.0 8.0 0.00 0.00 0.00 42 1018.3
20260503175559 48 157 0.0 2.0 0.00 0.00 0.00 42 1018.3
20260503175056 49 31 5.0 8.0 0.00 0.00 0.00 38 1018.1
20260503174553 48 117 5.0 8.0 0.00 0.00 0.00 38 1018.5
20260503174049 48 261 6.0 9.0 0.00 0.00 0.00 43 1018.6
20260503173544 48 342 6.0 10.0 0.00 0.00 0.00 47 1018.5
20260503173041 48 72 5.0 6.0 0.00 0.00 0.00 43 1018.6
20260503172539 47 333 5.0 8.0 0.00 0.00 0.00 42 1018.7
20260503172035 47 15 7.0 13.0 0.00 0.00 0.00 46 1018.6
20260503171532 47 283 4.0 8.0 0.00 0.00 0.00 45 1018.7
20260503171030 47 331 5.0 10.0 0.00 0.00 0.00 40 1018.8
20260503170526 46 297 4.0 9.0 0.00 0.00 0.00 40 1018.7
20260503150918 42 311 7.0 9.0 0.00 0.00 0.00 51 1019.5
20260503150415 42 330 8.0 10.0 0.00 0.00 0.00 50 1019.2
20260503131308 36 293 7.0 10.0 0.00 0.00 0.00 67 1018.9
20260503130805 37 3 9.0 13.0 0.00 0.00 0.00 68 1019.0
20260503130302 36 334 5.0 10.0 0.00 0.00 0.00 74 1018.8
20260503110656 29 305 2.0 3.0 0.00 0.00 0.00 91 1017.3
20260503110154 29 308 3.0 4.0 0.00 0.00 0.00 91 1017.0
20260503100120 29 344 2.0 4.0 0.00 0.00 0.00 90 1016.6
20260503081509 30 326 5.0 7.0 0.00 0.00 0.00 87 1015.8
20260503081007 30 350 2.0 3.0 0.00 0.00 0.00 86 1015.6
20260503080503 30 347 2.0 4.0 0.00 0.00 0.00 86 1015.8